DW4236 Weather Reports


Display with metric or nautical units.
time (UTC)temp
F
wind
direction
speed
MPH
gust
MPH
rain 1hr
in
rain 24hr
in
rain mn
in
humidity
%
barometer
mb
20260906012604 69 45 0.0 0.0 0.00 0.00 0.00 78 1013.7
20260906012104 69 40 0.0 1.0 0.00 0.00 0.00 78 1013.5
20260906011604 70 44 0.0 2.0 0.00 0.00 0.00 77 1013.5
20260906011104 70 40 1.0 2.0 0.00 0.00 0.00 77 1013.6
20260906010603 70 40 2.0 3.0 0.00 0.00 0.00 77 1013.6
20260906010104 70 40 1.0 2.0 0.00 0.00 0.00 77 1013.4
20260906005604 70 40 0.0 0.0 0.00 0.00 0.00 76 1013.4
20260906004604 70 43 2.0 3.0 0.00 0.00 0.00 76 1013.2
20260906004104 70 58 2.0 3.0 0.00 0.00 0.00 76 1013.2
20260906003104 71 23 1.0 6.0 0.00 0.00 0.00 75 1013.1
20260906002603 71 40 0.0 1.0 0.00 0.00 0.00 75 1013.1
20260906002105 71 31 1.0 3.0 0.00 0.00 0.00 75 1013.1
20260906001604 71 34 2.0 5.0 0.00 0.00 0.00 75 1013.1
20260906001103 71 51 2.0 5.0 0.00 0.00 0.00 75 1013.1
20260906000604 71 26 3.0 6.0 0.00 0.00 0.00 75 1013.1
20260906000105 71 38 2.0 5.0 0.00 0.00 0.00 75 1013.0
20260905235603 71 30 2.0 5.0 0.00 0.00 0.00 75 1012.9
20260905235104 71 19 2.0 5.0 0.00 0.00 0.00 75 1012.8
20260905234604 71 48 0.0 3.0 0.00 0.00 0.00 74 1012.7
20260905234104 71 51 2.0 5.0 0.00 0.00 0.00 74 1012.6
20260905233603 71 33 2.0 5.0 0.00 0.00 0.00 74 1012.6
20260905232604 71 22 3.0 6.0 0.00 0.00 0.00 74 1012.6
20260905232103 71 31 3.0 9.0 0.00 0.00 0.00 74 1012.6
20260905231604 72 22 2.0 5.0 0.00 0.00 0.00 75 1012.6
20260905230604 72 23 3.0 6.0 0.00 0.00 0.00 74 1012.5
20260905230104 73 31 3.0 8.0 0.00 0.00 0.00 73 1012.5
20260905225603 73 100 1.0 3.0 0.00 0.00 0.00 72 1012.4
20260905225104 73 359 2.0 5.0 0.00 0.00 0.00 72 1012.4
20260905224604 73 20 3.0 8.0 0.00 0.00 0.00 71 1012.4
20260905224104 73 30 1.0 5.0 0.00 0.00 0.00 71 1012.3
20260905223603 73 20 2.0 3.0 0.00 0.00 0.00 70 1012.1
20260905223105 73 16 3.0 5.0 0.00 0.00 0.00 70 1012.1
20260905222604 73 28 3.0 10.0 0.00 0.00 0.00 70 1012.2
20260905222104 74 9 1.0 3.0 0.00 0.00 0.00 70 1012.1
20260905221604 74 17 2.0 3.0 0.00 0.00 0.00 70 1012.0
20260905220605 74 25 2.0 5.0 0.00 0.00 0.00 69 1011.9
20260905220104 75 8 3.0 7.0 0.00 0.00 0.00 68 1011.9
20260905215603 75 31 3.0 8.0 0.00 0.00 0.00 68 1011.9
20260905215104 75 355 2.0 7.0 0.00 0.00 0.00 68 1011.9
20260905214604 75 11 2.0 6.0 0.00 0.00 0.00 68 1011.7
20260905214104 75 38 2.0 3.0 0.00 0.00 0.00 67 1011.7
20260905213603 75 94 1.0 5.0 0.00 0.00 0.00 66 1011.7
20260905213104 75 28 2.0 6.0 0.00 0.00 0.00 66 1011.7
20260905212605 76 16 3.0 9.0 0.00 0.00 0.00 65 1011.6
20260905212104 76 50 2.0 5.0 0.00 0.00 0.00 64 1011.6
20260905211604 77 45 4.0 8.0 0.00 0.00 0.00 62 1011.6
20260905211103 77 337 2.0 6.0 0.00 0.00 0.00 63 1011.6
20260905210605 77 40 1.0 5.0 0.00 0.00 0.00 63 1011.5
20260905210104 77 49 1.0 3.0 0.00 0.00 0.00 63 1011.4
20260905205104 76 24 1.0 3.0 0.00 0.00 0.00 64 1011.4
20260905204605 76 21 2.0 5.0 0.00 0.00 0.00 63 1011.4
20260905204104 77 52 3.0 8.0 0.00 0.00 0.00 61 1011.3
20260905203604 78 27 2.0 10.0 0.00 0.00 0.00 59 1011.3
20260905202603 80 30 4.0 8.0 0.00 0.00 0.00 58 1011.3
20260905202103 80 45 2.0 5.0 0.00 0.00 0.00 60 1011.3
20260905201604 79 20 4.0 9.0 0.00 0.00 0.00 59 1011.3
20260905201103 79 1 5.0 10.0 0.00 0.00 0.00 58 1011.3
20260905200604 79 18 2.0 6.0 0.00 0.00 0.00 61 1011.3
20260905200104 78 100 3.0 7.0 0.00 0.00 0.00 60 1011.3
20260905195604 79 37 4.0 9.0 0.00 0.00 0.00 60 1011.3
20260905195104 78 80 4.0 10.0 0.00 0.00 0.00 61 1011.3
20260905194604 78 44 5.0 9.0 0.00 0.00 0.00 61 1011.3
20260905193604 78 351 4.0 10.0 0.00 0.00 0.00 60 1011.2
20260905193103 78 47 3.0 9.0 0.00 0.00 0.00 59 1011.2
20260905192104 78 95 3.0 9.0 0.00 0.00 0.00 60 1011.2
20260905191603 78 6 2.0 8.0 0.00 0.00 0.00 63 1011.3
20260905191104 77 26 3.0 9.0 0.00 0.00 0.00 63 1011.4
20260905190604 78 6 3.0 6.0 0.00 0.00 0.00 62 1011.4
20260905190103 78 82 2.0 7.0 0.00 0.00 0.00 61 1011.3
20260905185604 79 22 3.0 8.0 0.00 0.00 0.00 60 1011.4
20260905184604 80 27 1.0 3.0 0.00 0.00 0.00 59 1011.4
20260905184103 80 65 3.0 10.0 0.00 0.00 0.00 58 1011.4
20260905183604 79 90 3.0 8.0 0.00 0.00 0.00 58 1011.5
20260905183103 79 42 3.0 8.0 0.00 0.00 0.00 59 1011.5
20260905182604 79 353 3.0 8.0 0.00 0.00 0.00 61 1011.5
20260905182103 78 350 1.0 9.0 0.00 0.00 0.00 64 1011.5
20260905181104 78 27 2.0 10.0 0.00 0.00 0.00 62 1011.7
20260905180604 78 19 6.0 12.0 0.00 0.00 0.00 61 1011.7
20260905175104 77 50 4.0 9.0 0.00 0.00 0.00 63 1011.9
20260905174604 77 65 5.0 12.0 0.00 0.00 0.00 66 1011.9
20260905173603 77 95 6.0 10.0 0.00 0.00 0.00 66 1012.0
20260905173103 76 86 1.0 12.0 0.00 0.00 0.00 67 1012.0
20260905172603 76 84 4.0 12.0 0.00 0.00 0.00 66 1012.0
20260905172104 76 63 2.0 9.0 0.00 0.00 0.00 68 1012.1
20260905171604 75 0 2.0 7.0 0.00 0.00 0.00 69 1012.1
20260905171103 75 57 2.0 9.0 0.00 0.00 0.00 68 1012.1
20260905170603 75 89 3.0 10.0 0.00 0.00 0.00 67 1012.2
20260905170104 76 58 5.0 13.0 0.00 0.00 0.00 66 1012.2
20260905165603 76 97 5.0 9.0 0.00 0.00 0.00 67 1012.1
20260905165104 76 18 4.0 8.0 0.00 0.00 0.00 67 1012.2
20260905164604 75 44 3.0 8.0 0.00 0.00 0.00 69 1012.2
20260905164105 75 84 2.0 5.0 0.00 0.00 0.00 70 1012.2
20260905163606 75 103 1.0 5.0 0.00 0.00 0.00 70 1012.2
20260905163105 75 20 5.0 9.0 0.00 0.00 0.00 69 1012.2
20260905162605 75 4 0.0 2.0 0.00 0.00 0.00 69 1012.1
20260905162106 76 358 2.0 8.0 0.00 0.00 0.00 68 1012.1
20260905161605 76 109 0.0 3.0 0.00 0.00 0.00 70 1012.1
20260905161105 75 118 2.0 5.0 0.00 0.00 0.00 71 1012.2
20260905160605 74 27 3.0 5.0 0.00 0.00 0.00 70 1012.2
20260905160105 74 122 3.0 7.0 0.00 0.00 0.00 72 1012.1
20260905155605 75 9 2.0 5.0 0.00 0.00 0.00 71 1012.2
20260905155104 75 55 2.0 6.0 0.00 0.00 0.00 70 1012.2
20260905154605 75 97 2.0 5.0 0.00 0.00 0.00 72 1012.2
20260905154105 75 107 2.0 7.0 0.00 0.00 0.00 72 1012.2
20260905153605 75 99 2.0 12.0 0.00 0.00 0.00 72 1012.2
20260905153105 76 2 3.0 8.0 0.00 0.00 0.00 71 1012.2
20260905152606 75 77 3.0 12.0 0.00 0.00 0.00 73 1012.2
20260905151605 74 124 4.0 9.0 0.00 0.00 0.00 75 1012.3
20260905150606 74 83 3.0 6.0 0.00 0.00 0.00 75 1012.4
20260905150105 74 139 2.0 6.0 0.00 0.00 0.00 75 1012.4
20260905145106 74 112 3.0 3.0 0.00 0.00 0.00 73 1012.5
20260905144605 74 112 1.0 3.0 0.00 0.00 0.00 73 1012.3
20260905144105 74 112 3.0 7.0 0.00 0.00 0.00 75 1012.2
20260905143606 74 126 2.0 3.0 0.00 0.00 0.00 74 1012.3
20260905143104 74 125 1.0 3.0 0.00 0.00 0.00 76 1012.4
20260905142605 74 126 2.0 3.0 0.00 0.00 0.00 76 1012.4
20260905142105 73 125 1.0 3.0 0.00 0.00 0.00 76 1012.4
20260905141605 73 125 1.0 3.0 0.00 0.00 0.00 77 1012.3
20260905141105 73 125 2.0 5.0 0.00 0.00 0.00 76 1012.4
20260905140606 73 125 1.0 5.0 0.00 0.00 0.00 78 1012.3
20260905135605 73 126 3.0 5.0 0.00 0.00 0.00 77 1012.4
20260905135105 72 128 1.0 5.0 0.00 0.00 0.00 78 1012.4
20260905134605 72 157 0.0 2.0 0.00 0.00 0.00 81 1012.5
20260905133604 71 183 1.0 5.0 0.00 0.00 0.00 83 1012.5
20260905132605 70 167 3.0 3.0 0.00 0.00 0.00 86 1012.6
20260905132105 68 224 1.0 3.0 0.00 0.00 0.00 86 1012.5
20260905131605 67 242 0.0 0.0 0.00 0.00 0.00 87 1012.6
20260905130605 67 242 0.0 0.0 0.00 0.00 0.00 86 1012.7
20260905130105 67 242 0.0 3.0 0.00 0.00 0.00 86 1012.7
20260905125605 67 242 0.0 2.0 0.00 0.00 0.00 87 1012.9
20260905125105 67 242 0.0 2.0 0.00 0.00 0.00 87 1012.9
20260905124605 66 242 1.0 2.0 0.00 0.00 0.00 87 1012.9
20260905124105 66 242 0.0 5.0 0.00 0.00 0.00 87 1012.8
20260905123105 66 282 2.0 5.0 0.00 0.00 0.00 88 1012.8
20260905122605 66 268 3.0 8.0 0.00 0.00 0.00 89 1012.9
20260905122106 66 281 4.0 8.0 0.00 0.00 0.00 90 1012.9
20260905121605 65 266 5.0 8.0 0.00 0.00 0.00 91 1012.9
20260905121105 65 279 2.0 3.0 0.00 0.00 0.00 92 1012.9
20260905120605 64 273 2.0 6.0 0.00 0.00 0.00 93 1012.8
20260905120105 64 307 1.0 7.0 0.00 0.00 0.00 94 1012.7
20260905115605 64 276 1.0 6.0 0.00 0.00 0.00 95 1012.6
20260905115105 63 264 2.0 7.0 0.00 0.00 0.00 95 1012.6
20260905114605 63 286 3.0 7.0 0.00 0.00 0.00 95 1012.6
20260905114105 62 286 2.0 3.0 0.00 0.00 0.00 95 1012.5
20260905113605 62 280 2.0 5.0 0.00 0.00 0.00 95 1012.4
20260905112606 61 336 0.0 0.0 0.00 0.00 0.00 96 1012.4
20260905112104 61 336 0.0 0.0 0.00 0.00 0.00 95 1012.4
20260905111605 60 336 0.0 0.0 0.00 0.00 0.00 95 1012.2
20260905111106 60 336 0.0 0.0 0.00 0.00 0.00 95 1012.2
20260905110605 60 336 0.0 0.0 0.00 0.00 0.00 95 1012.2
20260905110105 60 336 0.0 0.0 0.00 0.00 0.00 95 1012.1
20260905105105 60 336 0.0 0.0 0.00 0.01 0.00 95 1011.9
20260905104604 60 336 0.0 0.0 0.00 0.01 0.00 95 1011.9
20260905104105 60 336 0.0 0.0 0.00 0.01 0.00 95 1011.8
20260905103605 60 336 0.0 0.0 0.00 0.01 0.00 95 1011.7
20260905103105 60 336 0.0 0.0 0.00 0.01 0.00 95 1011.7
20260905102606 60 336 0.0 0.0 0.00 0.01 0.00 95 1011.5
20260905102105 60 336 0.0 0.0 0.00 0.01 0.00 95 1011.5
20260905101606 60 336 0.0 0.0 0.00 0.01 0.00 95 1011.5
20260905101104 60 336 0.0 0.0 0.00 0.01 0.00 94 1011.4
20260905100605 60 336 0.0 0.0 0.00 0.01 0.00 94 1011.4
20260905100105 60 336 0.0 0.0 0.00 0.01 0.00 94 1011.5
20260905095106 60 336 0.0 0.0 0.00 0.01 0.00 94 1011.4
20260905094604 60 336 0.0 0.0 0.00 0.01 0.00 94 1011.5
20260905094104 60 336 0.0 0.0 0.00 0.01 0.00 94 1011.4
20260905093605 60 336 0.0 0.0 0.00 0.01 0.00 94 1011.5
20260905093104 60 336 0.0 0.0 0.00 0.01 0.00 94 1011.4
20260905092604 60 336 0.0 0.0 0.00 0.01 0.00 94 1011.4
20260905092104 61 336 0.0 0.0 0.00 0.01 0.00 94 1011.4
20260905091106 61 336 0.0 0.0 0.00 0.01 0.00 94 1011.4
20260905090605 61 336 0.0 0.0 0.00 0.01 0.00 94 1011.3
20260905085605 61 336 0.0 0.0 0.00 0.01 0.00 94 1011.3
20260905085105 61 336 0.0 0.0 0.00 0.01 0.00 94 1011.3
20260905084605 61 336 0.0 0.0 0.00 0.01 0.00 94 1011.3
20260905084105 61 336 0.0 0.0 0.00 0.01 0.00 94 1011.2
20260905083605 61 336 0.0 0.0 0.00 0.01 0.00 94 1011.2
20260905083105 61 336 0.0 0.0 0.00 0.01 0.00 94 1011.3
20260905082606 61 336 0.0 0.0 0.00 0.01 0.00 94 1011.2
20260905082106 62 336 0.0 0.0 0.00 0.01 0.00 93 1011.2
20260905081104 62 336 0.0 0.0 0.00 0.01 0.00 93 1011.2
20260905080605 62 336 0.0 0.0 0.00 0.01 0.00 94 1011.3
20260905080105 62 336 0.0 0.0 0.00 0.01 0.00 93 1011.3
20260905075604 62 336 0.0 0.0 0.00 0.01 0.00 93 1011.3
20260905074605 62 336 0.0 0.0 0.00 0.01 0.00 93 1011.3
20260905074106 62 336 0.0 0.0 0.00 0.01 0.00 93 1011.3
20260905073605 62 336 0.0 0.0 0.00 0.01 0.00 93 1011.4
20260905072605 62 336 0.0 0.0 0.00 0.01 0.00 93 1011.4
20260905072105 62 335 0.0 0.0 0.00 0.02 0.00 93 1011.4
20260905071606 63 335 0.0 0.0 0.00 0.03 0.00 93 1011.4
20260905071105 63 335 0.0 0.0 0.00 0.05 0.00 92 1011.4
20260905070604 63 335 0.0 0.0 0.00 0.06 0.00 92 1011.3
20260905065605 63 334 0.0 0.0 0.00 0.07 0.00 92 1011.5
20260905065105 63 334 0.0 0.0 0.00 0.08 0.00 92 1011.5
20260905064605 63 332 0.0 0.0 0.00 0.12 0.00 92 1011.4
20260905064105 64 332 0.0 0.0 0.00 0.19 0.00 92 1011.5
20260905063605 64 333 0.0 0.0 0.00 0.21 0.00 92 1011.6
20260905063104 64 333 0.0 2.0 0.00 0.21 0.00 92 1011.6
20260905062605 64 334 0.0 0.0 0.00 0.21 0.00 92 1011.6
20260905062105 64 334 0.0 0.0 0.00 0.22 0.00 91 1011.6
20260905060604 65 334 0.0 0.0 0.00 0.25 0.00 91 1011.7
20260905060104 65 334 0.0 0.0 0.00 0.25 0.00 91 1011.7
20260905055105 65 335 0.0 0.0 0.00 0.25 0.00 91 1011.7
20260905054605 65 335 0.0 0.0 0.00 0.25 0.00 91 1011.9
20260905053605 66 335 0.0 0.0 0.00 0.25 0.00 91 1012.0
20260905053105 66 335 0.0 0.0 0.00 0.25 0.00 91 1012.1
20260905052604 66 335 0.0 0.0 0.00 0.25 0.00 91 1012.1
20260905052105 66 335 0.0 0.0 0.00 0.25 0.00 91 1012.2
20260905051105 66 334 0.0 0.0 0.00 0.25 0.00 90 1012.3
20260905050604 66 334 0.0 0.0 0.00 0.25 0.00 90 1012.3
20260905050104 66 334 0.0 0.0 0.00 0.25 0.00 90 1012.3
20260905045606 66 334 0.0 0.0 0.00 0.25 0.00 90 1012.3
20260905045105 66 334 0.0 0.0 0.00 0.25 0.00 90 1012.3
20260905044605 66 334 0.0 0.0 0.00 0.25 0.00 90 1012.2
20260905043104 66 334 0.0 0.0 0.00 0.25 0.00 89 1012.1
20260905042605 67 333 0.0 0.0 0.00 0.25 0.00 89 1012.3
20260905042104 67 334 0.0 0.0 0.00 0.25 0.00 89 1012.2
20260905041104 67 334 0.0 0.0 0.00 0.25 0.00 89 1012.2
20260905040605 67 334 0.0 0.0 0.00 0.25 0.00 89 1012.3
20260905035605 67 334 0.0 0.0 0.00 0.25 0.25 89 1012.3
20260905035104 67 334 0.0 0.0 0.00 0.25 0.25 89 1012.3
20260905034605 67 334 0.0 0.0 0.00 0.25 0.25 88 1012.4
20260905033105 68 334 0.0 0.0 0.00 0.25 0.25 89 1012.3
20260905032606 68 334 0.0 0.0 0.00 0.25 0.25 89 1012.2
20260905032105 68 334 0.0 0.0 0.00 0.25 0.25 88 1012.2
20260905031105 68 334 0.0 0.0 0.00 0.25 0.25 88 1012.2
20260905030605 68 334 0.0 0.0 0.00 0.25 0.25 88 1012.2
20260905030104 68 334 0.0 0.0 0.00 0.25 0.25 88 1012.1
20260905025605 68 334 0.0 0.0 0.00 0.25 0.25 87 1012.1
20260905025104 68 334 0.0 0.0 0.00 0.25 0.25 87 1012.1
20260905024605 69 334 0.0 0.0 0.00 0.25 0.25 86 1012.1
20260905024105 69 334 0.0 0.0 0.00 0.25 0.25 86 1012.1
20260905023605 69 335 0.0 0.0 0.00 0.25 0.25 85 1012.1
20260905023106 69 336 0.0 0.0 0.00 0.25 0.25 85 1012.2
20260905022604 69 336 1.0 2.0 0.00 0.25 0.25 85 1012.1
20260905022104 69 336 2.0 3.0 0.00 0.25 0.25 85 1012.3
20260905021605 69 336 0.0 0.0 0.00 0.25 0.25 84 1012.3
20260905020605 70 336 0.0 0.0 0.00 0.25 0.25 83 1012.2
20260905020107 70 336 0.0 0.0 0.00 0.25 0.25 83 1012.2
20260905015605 70 336 1.0 2.0 0.00 0.25 0.25 82 1012.2
20260905015105 71 336 0.0 1.0 0.00 0.25 0.25 82 1012.2
20260905014605 71 336 0.0 1.0 0.00 0.25 0.25 81 1012.1
20260905014105 72 334 1.0 2.0 0.00 0.25 0.25 80 1012.1
20260905013605 72 340 0.0 1.0 0.00 0.25 0.25 80 1012.1
20260905013104 72 340 0.0 2.0 0.00 0.25 0.25 79 1012.0